Location: Bacharowice
(49.9333°N, 19.5833°E)
Time: 09:12:22
(UTC+00:00)

CARTOSAT-1 - Pass Details

Date: 11 May 2021
Orbit: 616 x 618 km, 97.8° (Epoch: 21 June)

Event Time Altitude Azimuth Distance (km) Brightness Sun altitude
Exits shadow 19:19:40 12° 135° (SE) 1,846 5.3 -9.1°
Maximum altitude 19:23:20 39° 68° (ENE) 928 4.3 -9.6°
Drops below altitude 10° 19:27:22 10° 360° (N) 1,995 6.9 -10.0°
Sets 19:29:40 0° 353° (N) 2,905 7.9 -10.3°
